Flag for Denmark Weather past 2 weeks in Aarhus, Denmark

Now
37 °F

Fog.


Feels Like: 37 °F
Forecast: 46 / 57 °F
Wind: 2 mph from West

Location: Tirstrup

Current Time: Apr 22, 2015 at 4:48:28 AM

Latest Report: Apr 22, 2015 at 4:20 AM


Visibility: 1 mi

Pressure: 30.21 "Hg

Humidity: 81%

Dew point: 32 °F

Location of AarhusLocation

Historic Weather in Aarhus — Graph

°F

Aarhus temperature yesterday

Maximum temperature yesterday: 63 °F (at 1:20 PM)
Minimum temperature yesterday: 43 °F (at 11:50 PM)
Average temperature yesterday: 52 °F

Past Weeks' High & Low Weather Summary

 TemperatureHumidityPressure
High68 °F (Apr 20, 5:20 PM)93% (Apr 10, 3:50 AM)30.48 "Hg (Apr 10, 3:50 AM)
Low30 °F (Apr 18, 6:50 AM)13% (Apr 20, 3:50 PM)29.68 "Hg (Apr 15, 3:20 PM)
Average47 °F65%30.14 "Hg
* Reported Apr 7 3:20 AM — Apr 22 3:20 AM, Aarhus, Weather by CustomWeather, © 2015

Note: Actual official high and low records may vary slightly from our data, if they occured in-between our weather recording intervals... More about our weather records

Advertising

Aarhus weather history for previous 24 hours

 ConditionsComfort  
Time TempWeatherWind HumidityBarometerVisibility
3:20 AM
Wed, Apr 22
37 °FChilly.3 mph81%30.21 "Hg4 mi
2:50 AM39 °FChilly.1 mph81%30.21 "Hg5 mi
2:20 AM39 °FChilly.2 mph87%30.21 "HgN/A
1:50 AM41 °FQuite cool.3 mph81%30.21 "HgN/A
1:20 AM43 °FQuite cool.6 mph76%30.21 "HgN/A
12:50 AM43 °FQuite cool.8 mph81%30.21 "HgN/A
12:20 AM43 °FQuite cool.9 mph81%30.21 "HgN/A
11:50 PM
Tue, Apr 21
43 °FPassing clouds.12 mph76%30.21 "HgN/A
11:20 PM45 °FQuite cool.12 mph71%30.21 "HgN/A
10:50 PM45 °FQuite cool.12 mph71%30.21 "HgN/A
10:20 PM45 °FQuite cool.10 mph71%30.21 "HgN/A
9:50 PM46 °FCool.13 mph66%30.21 "HgN/A
9:20 PM46 °FCool.13 mph66%30.21 "HgN/A
8:50 PM48 °FCool.12 mph62%30.21 "HgN/A
8:20 PM48 °FCool.17 mph62%30.24 "HgN/A
7:50 PM50 °FCool.20 mph58%30.21 "HgN/A
7:20 PM52 °FCool.20 mph54%30.21 "HgN/A
6:50 PM54 °FCool.17 mph51%30.24 "HgN/A
6:20 PM55 °FRefreshingly cool.17 mph47%30.24 "HgN/A
5:50 PM57 °FRefreshingly cool.16 mph48%30.24 "HgN/A
5:20 PM57 °FRefreshingly cool.17 mph48%30.24 "HgN/A
4:50 PM61 °FRefreshingly cool.18 mph48%30.27 "HgN/A
4:20 PM63 °FMild.13 mph37%30.27 "HgN/A
3:50 PM63 °FMild.14 mph39%30.27 "HgN/A
3:20 PM63 °FMild.10 mph34%30.27 "HgN/A
2:50 PM63 °FMild.13 mph37%30.27 "HgN/A
2:20 PM63 °FMild.10 mph39%30.27 "HgN/A
1:50 PM63 °FMild.14 mph42%30.30 "HgN/A
1:20 PM63 °FMild.7 mph39%30.30 "HgN/A
12:50 PM61 °FRefreshingly cool.9 mph39%30.30 "HgN/A
12:20 PM61 °FRefreshingly cool.10 mph39%30.30 "HgN/A
11:50 AM59 °FRefreshingly cool.12 mph42%30.30 "HgN/A
11:20 AM59 °FRefreshingly cool.10 mph39%30.30 "HgN/A
10:50 AM55 °FRefreshingly cool.13 mph44%30.27 "HgN/A
10:20 AM55 °FRefreshingly cool.13 mph47%30.27 "HgN/A
9:50 AM54 °FCool.13 mph51%30.27 "HgN/A
9:20 AM52 °FCool.13 mph58%30.27 "HgN/A
8:50 AM50 °FCool.14 mph62%30.27 "HgN/A
8:20 AM48 °FCool.12 mph66%30.27 "HgN/A
7:50 AM46 °FCool.13 mph66%30.27 "HgN/A
7:20 AM46 °FCool.15 mph66%30.27 "HgN/A
6:50 AM45 °FQuite cool.13 mph66%30.27 "HgN/A
6:20 AM45 °FQuite cool.14 mph66%30.24 "HgN/A
5:50 AM46 °FCool.14 mph57%30.24 "HgN/A
5:20 AM46 °FCool.15 mph57%30.24 "HgN/A
4:50 AM46 °FCool.16 mph57%30.24 "HgN/A
4:20 AM46 °FCool.14 mph57%30.27 "HgN/A
Weather by CustomWeather, © 2015

See weather overviewHow to use our weather pages